Home   Weather   San Marino   Past weeks
Flag for San Marino

Past Weather in San Marino, San Marino — Yesterday and Last 2 Weeks

Now
45 °F

Quite cool.


Feels Like: 45 °F
Forecast: 46 / 33 °F
Wind: 2 mph from Southwest

Location: Rimini Airport

Current Time: Apr 3, 2020 at 9:54:33 pm

Latest Report: Apr 3, 2020 at 8:50 pm


Visibility: N/A

Pressure: 29.98 "Hg (27.64 "Hg at 666m altitude)

Humidity: 76%

Dew Point: 37 °F

Location of San MarinoLocation

Past Weather in San Marino — Graph

°F

San Marino Temperature Yesterday

Maximum temperature yesterday: 52 °F (at 1:50 pm)
Minimum temperature yesterday: 32 °F (at 5:20 am)
Average temperature yesterday: 42 °F

High & Low Weather Summary for the Past Weeks

 TemperatureHumidityPressure
High59 °F (Mar 29, 11:20 am)100% (Mar 26, 10:50 pm)30.36 "Hg (Mar 26, 10:50 pm)
Low30 °F (Apr 3, 3:50 am)29% (Mar 24, 1:20 am)29.86 "Hg (Mar 26, 4:20 pm)
Average47 °F68%30.05 "Hg
* Reported Mar 19 7:20 pm — Apr 3 8:20 pm, San Marino. Weather by CustomWeather, © 2020

Note: Actual official high and low records may vary slightly from our data, if they occured in-between our weather recording intervals... More about our weather records

San Marino Weather History for the Previous 24 Hours

Scroll right to see more
 ConditionsComfort  
Time TempWeatherWind HumidityBarometerVisibility
8:20 pm
Fri, Apr 3
48 °FCool.1 mph71%29.98 "HgN/A
7:50 pm48 °FCool.2 mph71%29.95 "HgN/A
7:20 pm50 °FCool.2 mph67%29.95 "HgN/A
6:50 pm52 °FPassing clouds.5 mph62%29.95 "HgN/A
6:20 pm52 °FSunny.6 mph67%29.95 "Hg10 mi
5:50 pm52 °FSunny.7 mph62%29.95 "Hg10 mi
5:20 pm54 °FPassing clouds.7 mph58%29.95 "HgN/A
4:50 pm54 °FPassing clouds.6 mph58%29.95 "HgN/A
4:20 pm54 °FPassing clouds.7 mph58%29.95 "HgN/A
3:50 pm52 °FPassing clouds.7 mph62%29.95 "HgN/A
3:20 pm54 °FPassing clouds.8 mph58%29.98 "HgN/A
2:50 pm54 °FPassing clouds.8 mph58%29.98 "HgN/A
2:20 pm54 °FPassing clouds.8 mph54%29.98 "HgN/A
1:50 pm52 °FPassing clouds.8 mph54%29.98 "HgN/A
1:20 pm52 °FSunny.9 mph58%29.98 "Hg10 mi
12:50 pm52 °FSunny.8 mph58%29.98 "Hg10 mi
12:20 pm52 °FPassing clouds.7 mph54%29.98 "HgN/A
11:50 am52 °FPassing clouds.7 mph54%29.98 "HgN/A
11:20 am52 °FPassing clouds.6 mph54%29.98 "HgN/A
10:50 am50 °FPassing clouds.5 mph58%29.98 "HgN/A
10:20 am50 °FPassing clouds.3 mph50%29.98 "HgN/A
9:50 am50 °FSunny.2 mph50%29.95 "Hg10 mi
9:20 am46 °FSunny.2 mph57%29.95 "Hg10 mi
8:50 am43 °FQuite cool.2 mph66%29.95 "HgN/A
8:20 am37 °FChilly.2 mph81%29.95 "HgN/A
7:50 am34 °FChilly.2 mph81%29.95 "HgN/A
7:20 am32 °FChilly.2 mph80%29.92 "HgN/A
6:50 am32 °FChilly.5 mph80%29.92 "HgN/A
6:20 am30 °FChilly.3 mph86%29.92 "HgN/A
5:50 am30 °FChilly.3 mph86%29.92 "HgN/A
5:20 am32 °FChilly.5 mph80%29.92 "HgN/A
4:50 am30 °FChilly.5 mph86%29.92 "HgN/A
4:20 am30 °FChilly.2 mph86%29.92 "HgN/A
3:50 am30 °FChilly.5 mph86%29.89 "HgN/A
3:20 am32 °FChilly.1 mph87%29.89 "HgN/A
2:50 am32 °FChilly.2 mph87%29.89 "HgN/A
1:20 am34 °FChilly.3 mph81%29.92 "HgN/A
12:50 am36 °FChilly.3 mph81%29.92 "HgN/A
12:20 am34 °FChilly.2 mph81%29.92 "HgN/A
11:50 pm
Thu, Apr 2
36 °FChilly.1 mph81%29.92 "HgN/A
11:20 pm37 °FChilly.2 mph75%29.92 "HgN/A
10:50 pm37 °FChilly.2 mph75%29.92 "HgN/A
10:20 pm39 °FChilly.2 mph70%29.92 "HgN/A
9:50 pm39 °FChilly.3 mph70%29.92 "HgN/A
9:20 pm41 °FQuite cool.2 mph70%29.92 "HgN/A
Weather by CustomWeather, © 2020

See weather overview

Advertising